{"data":{"norad_id":58897,"epoch":"2026-05-24T22:04:55.793280Z","epoch_age_seconds":88804,"freshness":"FRESH","line1":"1 58897U 24020X   26144.92009020  .00000723  00000+0  35056-4 0  9998","line2":"2 58897  53.1604 328.2429 0001228  82.4372 277.6769 15.31701043129749","mean_motion":15.31701043,"eccentricity":0.0001228,"inclination_deg":53.1604,"raan_deg":328.2429,"arg_perigee_deg":82.4372,"mean_anomaly_deg":277.6769,"bstar":3.5056e-5,"rev_number":12974,"period_min":94.013123943534,"perigee_km":469.89584438547,"apogee_km":471.5779278119,"semimajor_km":6848.8738860987,"source":"CELESTRAK","updated_at":"2026-05-25T13:38:18.787686Z"}}